Time,TemperatureF,DewpointF,PressureIn,WindDirection,WindDirectionDegrees,WindSpeedMPH,WindSpeedGustMPH,Humidity,HourlyPrecipIn,Conditions,Clouds,dailyrainin,SoftwareType,DateUTC
2013-10-09 00:03:00,60.2,45.8,29.84,SSW,192,10.0,13.0,59,0.00,,,0.00,Wunderground v.1.15,2013-10-09 05:03:00,
2013-10-09 00:09:00,60.0,46.1,29.84,South,175,9.0,13.0,60,0.00,,,0.00,Wunderground v.1.15,2013-10-09 05:09:00,
2013-10-09 00:15:00,60.0,46.1,29.85,South,188,9.0,12.0,60,0.00,,,0.00,Wunderground v.1.15,2013-10-09 05:15:00,
2013-10-09 00:21:00,59.8,45.9,29.85,South,188,11.0,11.0,60,0.00,,,0.00,Wunderground v.1.15,2013-10-09 05:21:00,
2013-10-09 00:26:00,59.5,45.6,29.85,South,181,8.0,12.0,60,0.00,,,0.00,Wunderground v.1.15,2013-10-09 05:26:00,
2013-10-09 00:32:00,59.2,45.8,29.85,South,174,7.0,13.0,61,0.00,,,0.00,Wunderground v.1.15,2013-10-09 05:32:00,
2013-10-09 00:38:00,59.0,46.0,29.85,SSW,207,11.0,13.0,62,0.00,,,0.00,Wunderground v.1.15,2013-10-09 05:38:00,
2013-10-09 00:43:00,59.0,45.6,29.85,South,186,8.0,11.0,61,0.00,,,0.00,Wunderground v.1.15,2013-10-09 05:43:00,
2013-10-09 00:49:00,59.1,45.7,29.85,South,184,10.0,12.0,61,0.00,,,0.00,Wunderground v.1.15,2013-10-09 05:49:00,
2013-10-09 00:54:00,59.0,46.0,29.85,South,175,8.0,10.0,62,0.00,,,0.00,Wunderground v.1.15,2013-10-09 05:54:00,
2013-10-09 01:00:00,59.0,46.0,29.85,South,184,9.0,9.0,62,0.00,,,0.00,Wunderground v.1.15,2013-10-09 06:00:00,
2013-10-09 01:06:00,58.9,46.3,29.85,SSE,159,8.0,14.0,63,0.00,,,0.00,Wunderground v.1.15,2013-10-09 06:06:00,
2013-10-09 01:11:00,58.8,46.2,29.86,SSE,168,10.0,10.0,63,0.00,,,0.00,Wunderground v.1.15,2013-10-09 06:11:00,
2013-10-09 01:16:00,58.5,45.9,29.86,South,180,7.0,11.0,63,0.00,,,0.00,Wunderground v.1.15,2013-10-09 06:16:00,
2013-10-09 01:22:00,58.3,46.2,29.86,South,179,9.0,12.0,64,0.00,,,0.00,Wunderground v.1.15,2013-10-09 06:22:00,
2013-10-09 01:27:00,58.4,45.8,29.86,South,178,13.0,13.0,63,0.00,,,0.00,Wunderground v.1.15,2013-10-09 06:27:00,
2013-10-09 01:33:00,58.5,45.9,29.86,SSW,193,7.0,15.0,63,0.00,,,0.00,Wunderground v.1.15,2013-10-09 06:33:00,
2013-10-09 01:39:00,58.6,46.0,29.86,South,180,7.0,15.0,63,0.00,,,0.00,Wunderground v.1.15,2013-10-09 06:39:00,
2013-10-09 01:44:00,58.6,46.0,29.86,South,186,8.0,13.0,63,0.00,,,0.00,Wunderground v.1.15,2013-10-09 06:44:00,
2013-10-09 01:50:00,58.4,45.8,29.86,South,178,9.0,9.0,63,0.00,,,0.00,Wunderground v.1.15,2013-10-09 06:50:00,
2013-10-09 01:56:00,58.3,46.2,29.86,SSW,193,8.0,12.0,64,0.00,,,0.00,Wunderground v.1.15,2013-10-09 06:56:00,
2013-10-09 02:01:00,58.2,46.1,29.87,South,177,13.0,13.0,64,0.00,,,0.00,Wunderground v.1.15,2013-10-09 07:01:00,
2013-10-09 02:06:00,57.9,45.8,29.87,South,169,11.0,14.0,64,0.00,,,0.00,Wunderground v.1.15,2013-10-09 07:06:00,
2013-10-09 02:11:00,57.9,45.8,29.87,South,174,9.0,15.0,64,0.00,,,0.00,Wunderground v.1.15,2013-10-09 07:11:00,
2013-10-09 02:16:00,57.9,45.8,29.87,South,178,7.0,15.0,64,0.00,,,0.00,Wunderground v.1.15,2013-10-09 07:16:00,
2013-10-09 02:21:00,57.7,46.0,29.87,South,171,7.0,12.0,65,0.00,,,0.00,Wunderground v.1.15,2013-10-09 07:21:00,
2013-10-09 02:26:00,57.7,46.0,29.87,South,178,6.0,15.0,65,0.00,,,0.00,Wunderground v.1.15,2013-10-09 07:26:00,
2013-10-09 02:31:00,57.4,45.7,29.87,South,171,9.0,12.0,65,0.00,,,0.00,Wunderground v.1.15,2013-10-09 07:31:00,
2013-10-09 02:36:00,57.1,45.8,29.87,SSE,163,5.0,12.0,66,0.00,,,0.00,Wunderground v.1.15,2013-10-09 07:36:00,
2013-10-09 02:41:00,57.0,45.7,29.87,South,188,8.0,14.0,66,0.00,,,0.00,Wunderground v.1.15,2013-10-09 07:41:00,
2013-10-09 02:46:00,56.9,46.1,29.87,South,169,9.0,14.0,67,0.00,,,0.00,Wunderground v.1.15,2013-10-09 07:46:00,
2013-10-09 02:51:00,56.6,45.8,29.87,South,173,7.0,9.0,67,0.00,,,0.00,Wunderground v.1.15,2013-10-09 07:51:00,
2013-10-09 02:56:00,56.4,46.0,29.87,South,178,6.0,14.0,68,0.00,,,0.00,Wunderground v.1.15,2013-10-09 07:56:00,
2013-10-09 03:01:00,56.2,45.8,29.88,South,173,9.0,9.0,68,0.00,,,0.00,Wunderground v.1.15,2013-10-09 08:01:00,
2013-10-09 03:06:00,56.0,45.6,29.87,SSE,168,8.0,13.0,68,0.00,,,0.00,Wunderground v.1.15,2013-10-09 08:06:00,
2013-10-09 03:11:00,55.9,45.5,29.87,South,176,8.0,9.0,68,0.00,,,0.00,Wunderground v.1.15,2013-10-09 08:11:00,
2013-10-09 03:16:00,55.8,45.8,29.87,South,175,6.0,12.0,69,0.00,,,0.00,Wunderground v.1.15,2013-10-09 08:16:00,
2013-10-09 03:21:00,55.6,45.6,29.87,South,180,3.0,8.0,69,0.00,,,0.00,Wunderground v.1.15,2013-10-09 08:21:00,
2013-10-09 03:26:00,55.3,45.7,29.88,South,185,4.0,14.0,70,0.00,,,0.00,Wunderground v.1.15,2013-10-09 08:26:00,
2013-10-09 03:31:00,55.2,45.6,29.88,South,190,9.0,9.0,70,0.00,,,0.00,Wunderground v.1.15,2013-10-09 08:31:00,
2013-10-09 03:36:00,55.3,45.7,29.88,South,180,3.0,11.0,70,0.00,,,0.00,Wunderground v.1.15,2013-10-09 08:36:00,
2013-10-09 03:41:00,55.1,45.5,29.87,South,172,6.0,10.0,70,0.00,,,0.00,Wunderground v.1.15,2013-10-09 08:41:00,
2013-10-09 03:46:00,54.8,45.6,29.88,South,177,5.0,10.0,71,0.00,,,0.00,Wunderground v.1.15,2013-10-09 08:46:00,
2013-10-09 03:51:00,54.8,45.6,29.88,South,178,2.0,7.0,71,0.00,,,0.00,Wunderground v.1.15,2013-10-09 08:51:00,
2013-10-09 03:56:00,54.6,45.8,29.88,South,171,4.0,13.0,72,0.00,,,0.00,Wunderground v.1.15,2013-10-09 08:56:00,
2013-10-09 04:01:00,54.2,45.4,29.88,South,181,4.0,7.0,72,0.00,,,0.00,Wunderground v.1.15,2013-10-09 09:01:00,
2013-10-09 04:06:00,53.9,45.1,29.88,South,170,7.0,9.0,72,0.00,,,0.00,Wunderground v.1.15,2013-10-09 09:06:00,
2013-10-09 04:11:00,53.6,45.2,29.88,SSE,165,6.0,8.0,73,0.00,,,0.00,Wunderground v.1.15,2013-10-09 09:11:00,
2013-10-09 04:16:00,53.1,45.0,29.88,SSE,155,9.0,11.0,74,0.00,,,0.00,Wunderground v.1.15,2013-10-09 09:16:00,
2013-10-09 04:21:00,53.1,45.4,29.88,SSE,161,1.0,8.0,75,0.00,,,0.00,Wunderground v.1.15,2013-10-09 09:21:00,
2013-10-09 04:26:00,52.9,45.2,29.88,SSE,165,7.0,9.0,75,0.00,,,0.00,Wunderground v.1.15,2013-10-09 09:26:00,
2013-10-09 04:31:00,52.9,45.2,29.88,SSE,165,6.0,9.0,75,0.00,,,0.00,Wunderground v.1.15,2013-10-09 09:31:00,
2013-10-09 04:36:00,53.1,45.4,29.88,SSE,166,4.0,10.0,75,0.00,,,0.00,Wunderground v.1.15,2013-10-09 09:36:00,
2013-10-09 04:41:00,53.1,45.4,29.88,SSE,165,2.0,9.0,75,0.00,,,0.00,Wunderground v.1.15,2013-10-09 09:41:00,
2013-10-09 04:46:00,53.2,45.5,29.88,SSE,168,3.0,10.0,75,0.00,,,0.00,Wunderground v.1.15,2013-10-09 09:46:00,
2013-10-09 04:51:00,53.2,45.5,29.88,SSE,163,7.0,9.0,75,0.00,,,0.00,Wunderground v.1.15,2013-10-09 09:51:00,
2013-10-09 04:56:00,53.2,45.5,29.88,South,169,3.0,11.0,75,0.00,,,0.00,Wunderground v.1.15,2013-10-09 09:56:00,
2013-10-09 05:01:00,53.0,45.3,29.89,SSE,165,3.0,8.0,75,0.00,,,0.00,Wunderground v.1.15,2013-10-09 10:01:00,
2013-10-09 05:06:00,53.0,45.6,29.88,SSE,165,7.0,10.0,76,0.00,,,0.00,Wunderground v.1.15,2013-10-09 10:06:00,
2013-10-09 05:11:00,53.0,45.6,29.88,SSE,165,8.0,8.0,76,0.00,,,0.00,Wunderground v.1.15,2013-10-09 10:11:00,
2013-10-09 05:16:00,52.9,45.5,29.88,South,173,3.0,10.0,76,0.00,,,0.00,Wunderground v.1.15,2013-10-09 10:16:00,
2013-10-09 05:21:00,52.9,45.5,29.88,SSE,168,3.0,7.0,76,0.00,,,0.00,Wunderground v.1.15,2013-10-09 10:21:00,
2013-10-09 05:26:00,52.8,45.4,29.88,SSE,164,7.0,10.0,76,0.00,,,0.00,Wunderground v.1.15,2013-10-09 10:26:00,
2013-10-09 05:31:00,52.7,45.3,29.89,South,169,3.0,7.0,76,0.00,,,0.00,Wunderground v.1.15,2013-10-09 10:31:00,
2013-10-09 05:36:00,52.5,45.2,29.89,South,173,10.0,11.0,76,0.00,,,0.00,Wunderground v.1.15,2013-10-09 10:36:00,
2013-10-09 05:41:00,52.3,45.3,29.89,SSE,161,4.0,7.0,77,0.00,,,0.00,Wunderground v.1.15,2013-10-09 10:41:00,
2013-10-09 05:46:00,52.1,45.1,29.89,SSE,163,6.0,9.0,77,0.00,,,0.00,Wunderground v.1.15,2013-10-09 10:46:00,
2013-10-09 05:51:00,52.0,45.4,29.89,SSE,161,5.0,10.0,78,0.00,,,0.00,Wunderground v.1.15,2013-10-09 10:51:00,
2013-10-09 05:56:00,52.1,45.4,29.89,SSE,161,6.0,11.0,78,0.00,,,0.00,Wunderground v.1.15,2013-10-09 10:56:00,
2013-10-09 06:01:00,52.1,45.4,29.89,SSE,165,5.0,8.0,78,0.00,,,0.00,Wunderground v.1.15,2013-10-09 11:01:00,
2013-10-09 06:06:00,51.9,45.3,29.89,SSE,156,5.0,9.0,78,0.00,,,0.00,Wunderground v.1.15,2013-10-09 11:06:00,
2013-10-09 06:11:00,51.9,45.6,29.89,SSE,156,5.0,12.0,79,0.00,,,0.00,Wunderground v.1.15,2013-10-09 11:11:00,
2013-10-09 06:16:00,51.9,45.3,29.89,SSE,148,6.0,12.0,78,0.00,,,0.00,Wunderground v.1.15,2013-10-09 11:16:00,
2013-10-09 06:21:00,51.8,45.5,29.90,SSE,160,6.0,6.0,79,0.00,,,0.00,Wunderground v.1.15,2013-10-09 11:21:00,
2013-10-09 06:26:00,51.7,45.4,29.90,SSE,163,4.0,7.0,79,0.00,,,0.00,Wunderground v.1.15,2013-10-09 11:26:00,
2013-10-09 06:31:00,51.7,45.4,29.89,SSE,168,4.0,8.0,79,0.00,,,0.00,Wunderground v.1.15,2013-10-09 11:31:00,
2013-10-09 06:37:00,51.7,45.4,29.89,SSE,157,0.0,10.0,79,0.00,,,0.00,Wunderground v.1.15,2013-10-09 11:37:00,
2013-10-09 06:42:00,51.6,45.6,29.89,South,170,3.0,10.0,80,0.00,,,0.00,Wunderground v.1.15,2013-10-09 11:42:00,
2013-10-09 06:47:00,51.4,45.4,29.89,SSE,165,4.0,11.0,80,0.00,,,0.00,Wunderground v.1.15,2013-10-09 11:47:00,
2013-10-09 06:52:00,51.4,45.4,29.90,SSE,158,5.0,10.0,80,0.00,,,0.00,Wunderground v.1.15,2013-10-09 11:52:00,
2013-10-09 06:57:00,51.4,45.4,29.89,SSE,160,2.0,10.0,80,0.00,,,0.00,Wunderground v.1.15,2013-10-09 11:57:00,
2013-10-09 07:02:00,51.4,45.4,29.89,SSE,161,6.0,8.0,80,0.00,,,0.00,Wunderground v.1.15,2013-10-09 12:02:00,
2013-10-09 07:03:00,51.4,45.4,29.89,SSE,160,1.0,8.0,80,0.00,,,0.00,Wunderground v.1.15,2013-10-09 12:03:00,
2013-10-09 07:08:00,51.2,45.2,29.89,SSE,164,9.0,9.0,80,0.00,,,0.00,Wunderground v.1.15,2013-10-09 12:08:00,
2013-10-09 07:13:00,51.2,45.6,29.90,SSE,161,5.0,10.0,81,0.00,,,0.00,Wunderground v.1.15,2013-10-09 12:13:00,
2013-10-09 07:18:00,51.4,45.8,29.90,SSE,162,1.0,10.0,81,0.00,,,0.00,Wunderground v.1.15,2013-10-09 12:18:00,
2013-10-09 07:23:00,51.5,45.5,29.90,SSE,157,4.0,8.0,80,0.00,,,0.00,Wunderground v.1.15,2013-10-09 12:23:00,
2013-10-09 07:28:00,51.5,45.5,29.90,SSE,160,4.0,8.0,80,0.00,,,0.00,Wunderground v.1.15,2013-10-09 12:28:00,
2013-10-09 07:33:00,51.4,45.4,29.91,SSE,163,4.0,7.0,80,0.00,,,0.00,Wunderground v.1.15,2013-10-09 12:33:00,
2013-10-09 07:38:00,51.2,45.6,29.91,SSE,163,5.0,7.0,81,0.00,,,0.00,Wunderground v.1.15,2013-10-09 12:38:00,
2013-10-09 07:43:00,51.0,45.4,29.91,SSE,163,3.0,5.0,81,0.00,,,0.00,Wunderground v.1.15,2013-10-09 12:43:00,
2013-10-09 07:48:00,50.9,45.3,29.91,SSE,163,2.0,7.0,81,0.00,,,0.00,Wunderground v.1.15,2013-10-09 12:48:00,
2013-10-09 07:53:00,50.7,45.4,29.91,SSE,163,4.0,8.0,82,0.00,,,0.00,Wunderground v.1.15,2013-10-09 12:53:00,
2013-10-09 07:58:00,50.6,45.3,29.91,SSE,163,4.0,8.0,82,0.00,,,0.00,Wunderground v.1.15,2013-10-09 12:58:00,
2013-10-09 08:03:00,50.9,45.6,29.92,SSE,163,3.0,8.0,82,0.00,,,0.00,Wunderground v.1.15,2013-10-09 13:03:00,
2013-10-09 08:08:00,51.2,45.9,29.92,SSE,164,6.0,8.0,82,0.00,,,0.00,Wunderground v.1.15,2013-10-09 13:08:00,
2013-10-09 08:13:00,51.2,45.9,29.92,SSE,166,2.0,8.0,82,0.00,,,0.00,Wunderground v.1.15,2013-10-09 13:13:00,
2013-10-09 08:18:00,51.3,46.0,29.92,SSE,166,2.0,8.0,82,0.00,,,0.00,Wunderground v.1.15,2013-10-09 13:18:00,
2013-10-09 08:23:00,51.6,46.3,29.92,SSE,167,5.0,8.0,82,0.00,,,0.00,Wunderground v.1.15,2013-10-09 13:23:00,
2013-10-09 08:28:00,52.2,46.5,29.92,SSE,164,6.0,9.0,81,0.00,,,0.00,Wunderground v.1.15,2013-10-09 13:28:00,
2013-10-09 08:33:00,53.0,47.0,29.92,SSE,165,7.0,12.0,80,0.00,,,0.00,Wunderground v.1.15,2013-10-09 13:33:00,
2013-10-09 08:38:00,53.7,47.3,29.92,South,175,6.0,12.0,79,0.00,,,0.00,Wunderground v.1.15,2013-10-09 13:38:00,
2013-10-09 08:43:00,54.2,47.5,29.92,SSE,166,5.0,11.0,78,0.00,,,0.00,Wunderground v.1.15,2013-10-09 13:43:00,
2013-10-09 08:48:00,54.7,47.6,29.92,South,184,9.0,12.0,77,0.00,,,0.00,Wunderground v.1.15,2013-10-09 13:48:00,
2013-10-09 08:53:00,55.1,47.7,29.92,SSE,163,7.0,11.0,76,0.00,,,0.00,Wunderground v.1.15,2013-10-09 13:53:00,
2013-10-09 08:58:00,55.6,47.8,29.92,SSE,165,7.0,12.0,75,0.00,,,0.00,Wunderground v.1.15,2013-10-09 13:58:00,
2013-10-09 09:04:00,56.1,48.3,29.92,South,171,4.0,10.0,75,0.00,,,0.00,Wunderground v.1.15,2013-10-09 14:04:00,
2013-10-09 09:09:00,56.6,48.4,29.92,SSE,160,8.0,12.0,74,0.00,,,0.00,Wunderground v.1.15,2013-10-09 14:09:00,
2013-10-09 09:14:00,57.0,48.4,29.92,SSE,161,12.0,15.0,73,0.00,,,0.00,Wunderground v.1.15,2013-10-09 14:14:00,
2013-10-09 09:19:00,57.2,48.3,29.92,South,173,7.0,15.0,72,0.00,,,0.00,Wunderground v.1.15,2013-10-09 14:19:00,
2013-10-09 09:24:00,57.4,48.4,29.92,South,169,4.0,10.0,72,0.00,,,0.00,Wunderground v.1.15,2013-10-09 14:24:00,
2013-10-09 09:29:00,56.8,47.9,29.92,South,188,4.0,14.0,72,0.00,,,0.00,Wunderground v.1.15,2013-10-09 14:29:00,
2013-10-09 09:34:00,56.4,47.5,29.93,South,184,7.0,15.0,72,0.00,,,0.00,Wunderground v.1.15,2013-10-09 14:34:00,
2013-10-09 09:39:00,56.2,47.7,29.93,South,190,4.0,15.0,73,0.00,,,0.00,Wunderground v.1.15,2013-10-09 14:39:00,
2013-10-09 09:44:00,56.1,47.6,29.93,South,175,6.0,11.0,73,0.00,,,0.00,Wunderground v.1.15,2013-10-09 14:44:00,
2013-10-09 09:49:00,56.4,47.9,29.93,South,182,3.0,11.0,73,0.00,,,0.00,Wunderground v.1.15,2013-10-09 14:49:00,
2013-10-09 09:54:00,57.3,48.3,29.93,South,176,6.0,12.0,72,0.00,,,0.00,Wunderground v.1.15,2013-10-09 14:54:00,
2013-10-09 09:59:00,58.4,49.0,29.93,SSE,167,12.0,13.0,71,0.00,,,0.00,Wunderground v.1.15,2013-10-09 14:59:00,
2013-10-09 10:04:00,59.0,48.8,29.93,South,182,5.0,13.0,69,0.00,,,0.00,Wunderground v.1.15,2013-10-09 15:04:00,
2013-10-09 10:09:00,59.6,49.0,29.92,South,172,10.0,14.0,68,0.00,,,0.00,Wunderground v.1.15,2013-10-09 15:09:00,
2013-10-09 10:14:00,60.0,49.0,29.93,South,180,9.0,14.0,67,0.00,,,0.00,Wunderground v.1.15,2013-10-09 15:14:00,
2013-10-09 10:19:00,60.3,48.9,29.93,South,175,13.0,14.0,66,0.00,,,0.00,Wunderground v.1.15,2013-10-09 15:19:00,
2013-10-09 10:24:00,60.8,49.4,29.93,SSW,205,6.0,14.0,66,0.00,,,0.00,Wunderground v.1.15,2013-10-09 15:24:00,
2013-10-09 10:29:00,61.3,49.4,29.93,SSW,198,7.0,15.0,65,0.00,,,0.00,Wunderground v.1.15,2013-10-09 15:29:00,
2013-10-09 10:34:00,61.9,49.6,29.93,South,181,10.0,12.0,64,0.00,,,0.00,Wunderground v.1.15,2013-10-09 15:34:00,
2013-10-09 10:39:00,62.5,50.2,29.93,South,180,8.0,13.0,64,0.00,,,0.00,Wunderground v.1.15,2013-10-09 15:39:00,
2013-10-09 10:44:00,63.4,50.1,29.93,South,179,11.0,12.0,62,0.00,,,0.00,Wunderground v.1.15,2013-10-09 15:44:00,
2013-10-09 10:49:00,63.6,49.9,29.93,South,187,13.0,16.0,61,0.00,,,0.00,Wunderground v.1.15,2013-10-09 15:49:00,
2013-10-09 10:54:00,63.8,50.1,29.92,South,179,12.0,12.0,61,0.00,,,0.00,Wunderground v.1.15,2013-10-09 15:54:00,
2013-10-09 10:59:00,63.8,49.6,29.92,South,183,9.0,16.0,60,0.00,,,0.00,Wunderground v.1.15,2013-10-09 15:59:00,
2013-10-09 11:04:00,64.5,50.3,29.92,South,190,5.0,14.0,60,0.00,,,0.00,Wunderground v.1.15,2013-10-09 16:04:00,
2013-10-09 11:09:00,65.3,51.1,29.92,SSW,196,11.0,14.0,60,0.00,,,0.00,Wunderground v.1.15,2013-10-09 16:09:00,
2013-10-09 11:14:00,65.6,50.9,29.92,South,189,8.0,14.0,59,0.00,,,0.00,Wunderground v.1.15,2013-10-09 16:14:00,
2013-10-09 11:19:00,66.3,51.1,29.92,South,169,7.0,14.0,58,0.00,,,0.00,Wunderground v.1.15,2013-10-09 16:19:00,
2013-10-09 11:24:00,67.3,51.5,29.92,South,176,12.0,12.0,57,0.00,,,0.00,Wunderground v.1.15,2013-10-09 16:24:00,
2013-10-09 11:29:00,67.3,51.1,29.92,SSE,163,7.0,17.0,56,0.00,,,0.00,Wunderground v.1.15,2013-10-09 16:29:00,
2013-10-09 11:34:00,67.6,50.9,29.92,South,177,6.0,12.0,55,0.00,,,0.00,Wunderground v.1.15,2013-10-09 16:34:00,
2013-10-09 11:39:00,68.4,51.1,29.92,SSW,199,7.0,17.0,54,0.00,,,0.00,Wunderground v.1.15,2013-10-09 16:39:00,
2013-10-09 11:44:00,69.5,51.1,29.92,SSW,193,8.0,13.0,52,0.00,,,0.00,Wunderground v.1.15,2013-10-09 16:44:00,
2013-10-09 11:50:00,69.6,50.7,29.92,SSE,167,6.0,18.0,51,0.00,,,0.00,Wunderground v.1.15,2013-10-09 16:50:00,
2013-10-09 11:55:00,69.9,50.9,29.92,SSE,161,9.0,12.0,51,0.00,,,0.00,Wunderground v.1.15,2013-10-09 16:55:00,
2013-10-09 12:00:00,69.9,51.5,29.92,SSW,195,13.0,15.0,52,0.00,,,0.00,Wunderground v.1.15,2013-10-09 17:00:00,
2013-10-09 12:05:00,69.4,50.5,29.92,SSE,165,9.0,18.0,51,0.00,,,0.00,Wunderground v.1.15,2013-10-09 17:05:00,
2013-10-09 12:10:00,69.7,50.8,29.92,SSE,167,10.0,18.0,51,0.00,,,0.00,Wunderground v.1.15,2013-10-09 17:10:00,
2013-10-09 12:15:00,70.2,51.2,29.92,South,180,7.0,15.0,51,0.00,,,0.00,Wunderground v.1.15,2013-10-09 17:15:00,
2013-10-09 12:20:00,70.7,51.1,29.92,South,182,11.0,16.0,50,0.00,,,0.00,Wunderground v.1.15,2013-10-09 17:20:00,
2013-10-09 12:25:00,70.8,51.2,29.92,South,171,11.0,18.0,50,0.00,,,0.00,Wunderground v.1.15,2013-10-09 17:25:00,
2013-10-09 12:30:00,70.6,50.5,29.92,SSW,202,14.0,21.0,49,0.00,,,0.00,Wunderground v.1.15,2013-10-09 17:30:00,
2013-10-09 12:35:00,71.3,51.1,29.92,SSW,200,12.0,20.0,49,0.00,,,0.00,Wunderground v.1.15,2013-10-09 17:35:00,
2013-10-09 12:40:00,71.8,51.0,29.92,SW,225,12.0,12.0,48,0.00,,,0.00,Wunderground v.1.15,2013-10-09 17:40:00,
2013-10-09 12:45:00,71.9,51.1,29.92,South,172,9.0,16.0,48,0.00,,,0.00,Wunderground v.1.15,2013-10-09 17:45:00,
2013-10-09 12:50:00,72.5,51.7,29.92,SSE,161,9.0,10.0,48,0.00,,,0.00,Wunderground v.1.15,2013-10-09 17:50:00,
2013-10-09 12:55:00,72.5,51.7,29.92,SSE,167,11.0,17.0,48,0.00,,,0.00,Wunderground v.1.15,2013-10-09 17:55:00,
2013-10-09 13:01:00,72.9,52.1,29.91,SSE,158,11.0,11.0,48,0.00,,,0.00,Wunderground v.1.15,2013-10-09 18:01:00,
2013-10-09 13:06:00,73.1,51.7,29.91,South,186,4.0,16.0,47,0.00,,,0.00,Wunderground v.1.15,2013-10-09 18:06:00,
2013-10-09 13:11:00,73.3,51.3,29.91,South,184,11.0,15.0,46,0.00,,,0.00,Wunderground v.1.15,2013-10-09 18:11:00,
2013-10-09 13:16:00,73.4,51.4,29.91,SSW,196,9.0,15.0,46,0.00,,,0.00,Wunderground v.1.15,2013-10-09 18:16:00,
2013-10-09 13:21:00,73.7,51.6,29.90,SSW,198,13.0,15.0,46,0.00,,,0.00,Wunderground v.1.15,2013-10-09 18:21:00,
2013-10-09 13:26:00,74.3,51.6,29.90,SSW,198,10.0,15.0,45,0.00,,,0.00,Wunderground v.1.15,2013-10-09 18:26:00,
2013-10-09 13:31:00,74.3,51.0,29.90,SE,145,16.0,16.0,44,0.00,,,0.00,Wunderground v.1.15,2013-10-09 18:31:00,
2013-10-09 13:36:00,74.7,51.9,29.90,SSE,158,6.0,17.0,45,0.00,,,0.00,Wunderground v.1.15,2013-10-09 18:36:00,
2013-10-09 13:41:00,75.0,52.2,29.90,South,172,6.0,13.0,45,0.00,,,0.00,Wunderground v.1.15,2013-10-09 18:41:00,
2013-10-09 13:46:00,74.8,51.4,29.90,SSE,168,5.0,15.0,44,0.00,,,0.00,Wunderground v.1.15,2013-10-09 18:46:00,
2013-10-09 13:52:00,74.8,51.4,29.90,SSE,157,9.0,14.0,44,0.00,,,0.00,Wunderground v.1.15,2013-10-09 18:52:00,
2013-10-09 13:57:00,74.5,51.8,29.90,South,171,9.0,17.0,45,0.00,,,0.00,Wunderground v.1.15,2013-10-09 18:57:00,
2013-10-09 14:01:00,74.9,51.5,29.90,SSE,162,9.0,12.0,44,0.00,,,0.00,Wunderground v.1.15,2013-10-09 19:01:00,
2013-10-09 14:07:00,75.3,51.9,29.89,SSE,163,10.0,16.0,44,0.00,,,0.00,Wunderground v.1.15,2013-10-09 19:07:00,
2013-10-09 14:12:00,75.2,51.2,29.89,SSE,166,5.0,14.0,43,0.00,,,0.00,Wunderground v.1.15,2013-10-09 19:12:00,
2013-10-09 14:17:00,75.2,51.8,29.89,SSE,154,9.0,15.0,44,0.00,,,0.00,Wunderground v.1.15,2013-10-09 19:17:00,
2013-10-09 14:22:00,75.3,51.3,29.89,SSE,149,6.0,17.0,43,0.00,,,0.00,Wunderground v.1.15,2013-10-09 19:22:00,
2013-10-09 14:27:00,75.4,52.0,29.89,South,184,8.0,17.0,44,0.00,,,0.00,Wunderground v.1.15,2013-10-09 19:27:00,
2013-10-09 14:32:00,76.0,51.9,29.89,SSE,148,8.0,14.0,43,0.00,,,0.00,Wunderground v.1.15,2013-10-09 19:32:00,
2013-10-09 14:37:00,75.8,52.3,29.88,SSE,168,8.0,18.0,44,0.00,,,0.00,Wunderground v.1.15,2013-10-09 19:37:00,
2013-10-09 14:42:00,75.9,52.4,29.88,South,174,8.0,18.0,44,0.00,,,0.00,Wunderground v.1.15,2013-10-09 19:42:00,
2013-10-09 14:47:00,76.0,51.2,29.88,South,169,12.0,20.0,42,0.00,,,0.00,Wunderground v.1.15,2013-10-09 19:47:00,
2013-10-09 14:52:00,76.2,51.4,29.88,SSE,167,13.0,19.0,42,0.00,,,0.00,Wunderground v.1.15,2013-10-09 19:52:00,
2013-10-09 14:57:00,76.2,51.4,29.88,SSE,148,7.0,19.0,42,0.00,,,0.00,Wunderground v.1.15,2013-10-09 19:57:00,
2013-10-09 15:02:00,76.4,51.6,29.88,SE,144,7.0,17.0,42,0.00,,,0.00,Wunderground v.1.15,2013-10-09 20:02:00,
2013-10-09 15:07:00,76.6,51.8,29.88,SE,136,11.0,17.0,42,0.00,,,0.00,Wunderground v.1.15,2013-10-09 20:07:00,
2013-10-09 15:12:00,76.5,51.0,29.87,South,181,9.0,12.0,41,0.00,,,0.00,Wunderground v.1.15,2013-10-09 20:12:00,
2013-10-09 15:17:00,76.6,51.1,29.88,SSE,155,7.0,18.0,41,0.00,,,0.00,Wunderground v.1.15,2013-10-09 20:17:00,
2013-10-09 15:22:00,76.6,51.8,29.87,SSE,167,7.0,16.0,42,0.00,,,0.00,Wunderground v.1.15,2013-10-09 20:22:00,
2013-10-09 15:27:00,76.5,52.3,29.88,SSE,160,8.0,17.0,43,0.00,,,0.00,Wunderground v.1.15,2013-10-09 20:27:00,
2013-10-09 15:32:00,76.7,52.5,29.87,South,171,12.0,16.0,43,0.00,,,0.00,Wunderground v.1.15,2013-10-09 20:32:00,
2013-10-09 15:37:00,76.9,52.7,29.87,SSE,165,8.0,16.0,43,0.00,,,0.00,Wunderground v.1.15,2013-10-09 20:37:00,
2013-10-09 15:42:00,76.6,51.8,29.87,SE,140,11.0,14.0,42,0.00,,,0.00,Wunderground v.1.15,2013-10-09 20:42:00,
2013-10-09 15:47:00,76.5,51.7,29.87,SSE,154,15.0,16.0,42,0.00,,,0.00,Wunderground v.1.15,2013-10-09 20:47:00,
2013-10-09 15:52:00,76.6,51.8,29.87,South,173,7.0,18.0,42,0.00,,,0.00,Wunderground v.1.15,2013-10-09 20:52:00,
2013-10-09 15:57:00,76.5,51.7,29.87,SE,142,15.0,18.0,42,0.00,,,0.00,Wunderground v.1.15,2013-10-09 20:57:00,
2013-10-09 16:02:00,76.2,51.4,29.87,SE,143,10.0,15.0,42,0.00,,,0.00,Wunderground v.1.15,2013-10-09 21:02:00,
2013-10-09 16:07:00,76.7,51.9,29.87,South,171,11.0,17.0,42,0.00,,,0.00,Wunderground v.1.15,2013-10-09 21:07:00,
2013-10-09 16:12:00,76.1,51.3,29.87,SSE,164,9.0,16.0,42,0.00,,,0.00,Wunderground v.1.15,2013-10-09 21:12:00,
2013-10-09 16:17:00,75.9,51.2,29.87,SE,124,11.0,18.0,42,0.00,,,0.00,Wunderground v.1.15,2013-10-09 21:17:00,
2013-10-09 16:22:00,75.9,51.2,29.87,SE,146,7.0,15.0,42,0.00,,,0.00,Wunderground v.1.15,2013-10-09 21:22:00,
2013-10-09 16:27:00,75.9,51.2,29.87,South,171,10.0,19.0,42,0.00,,,0.00,Wunderground v.1.15,2013-10-09 21:27:00,
2013-10-09 16:32:00,76.2,51.4,29.87,SSE,168,10.0,15.0,42,0.00,,,0.00,Wunderground v.1.15,2013-10-09 21:32:00,
2013-10-09 16:37:00,76.1,51.3,29.86,SSE,148,14.0,16.0,42,0.00,,,0.00,Wunderground v.1.15,2013-10-09 21:37:00,
2013-10-09 16:42:00,75.8,51.1,29.86,SSE,152,11.0,15.0,42,0.00,,,0.00,Wunderground v.1.15,2013-10-09 21:42:00,
2013-10-09 16:47:00,75.7,51.6,29.86,SSE,147,9.0,16.0,43,0.00,,,0.00,Wunderground v.1.15,2013-10-09 21:47:00,
2013-10-09 16:52:00,75.5,51.4,29.85,SE,140,9.0,19.0,43,0.00,,,0.00,Wunderground v.1.15,2013-10-09 21:52:00,
2013-10-09 16:57:00,75.4,50.7,29.85,SSE,153,14.0,19.0,42,0.00,,,0.00,Wunderground v.1.15,2013-10-09 21:57:00,
2013-10-09 17:02:00,75.4,51.3,29.86,SE,138,18.0,18.0,43,0.00,,,0.00,Wunderground v.1.15,2013-10-09 22:02:00,
2013-10-09 17:07:00,75.2,50.5,29.85,SSE,159,9.0,18.0,42,0.00,,,0.00,Wunderground v.1.15,2013-10-09 22:07:00,
2013-10-09 17:12:00,75.0,50.3,29.85,SE,126,12.0,17.0,42,0.00,,,0.00,Wunderground v.1.15,2013-10-09 22:12:00,
2013-10-09 17:17:00,74.8,51.4,29.86,SE,140,11.0,17.0,44,0.00,,,0.00,Wunderground v.1.15,2013-10-09 22:17:00,
2013-10-09 17:22:00,74.6,51.2,29.86,SE,144,5.0,15.0,44,0.00,,,0.00,Wunderground v.1.15,2013-10-09 22:22:00,
2013-10-09 17:27:00,74.2,52.1,29.86,SSE,153,4.0,15.0,46,0.00,,,0.00,Wunderground v.1.15,2013-10-09 22:27:00,
2013-10-09 17:32:00,74.0,51.3,29.86,SE,140,12.0,17.0,45,0.00,,,0.00,Wunderground v.1.15,2013-10-09 22:32:00,
2013-10-09 17:38:00,73.7,51.0,29.86,SSE,149,10.0,17.0,45,0.00,,,0.00,Wunderground v.1.15,2013-10-09 22:38:00,
2013-10-09 17:43:00,73.5,50.9,29.86,SE,142,13.0,16.0,45,0.00,,,0.00,Wunderground v.1.15,2013-10-09 22:43:00,
2013-10-09 17:48:00,73.3,50.7,29.86,SE,146,11.0,16.0,45,0.00,,,0.00,Wunderground v.1.15,2013-10-09 22:48:00,
2013-10-09 17:53:00,72.9,50.9,29.86,SE,144,6.0,13.0,46,0.00,,,0.00,Wunderground v.1.15,2013-10-09 22:53:00,
2013-10-09 17:58:00,72.5,50.5,29.85,SSE,150,12.0,16.0,46,0.00,,,0.00,Wunderground v.1.15,2013-10-09 22:58:00,
2013-10-09 18:03:00,72.1,50.2,29.85,SE,141,5.0,11.0,46,0.00,,,0.00,Wunderground v.1.15,2013-10-09 23:03:00,
2013-10-09 18:08:00,71.5,50.2,29.85,SE,132,5.0,12.0,47,0.00,,,0.00,Wunderground v.1.15,2013-10-09 23:08:00,
2013-10-09 18:13:00,71.1,49.8,29.85,SSE,155,7.0,12.0,47,0.00,,,0.00,Wunderground v.1.15,2013-10-09 23:13:00,
2013-10-09 18:18:00,70.6,50.0,29.86,SE,144,7.0,12.0,48,0.00,,,0.00,Wunderground v.1.15,2013-10-09 23:18:00,
2013-10-09 18:23:00,70.0,50.0,29.86,SE,146,3.0,14.0,49,0.00,,,0.00,Wunderground v.1.15,2013-10-09 23:23:00,
2013-10-09 18:28:00,69.7,49.7,29.86,SSE,155,4.0,14.0,49,0.00,,,0.00,Wunderground v.1.15,2013-10-09 23:28:00,
2013-10-09 18:33:00,69.5,49.5,29.86,SE,144,4.0,11.0,49,0.00,,,0.00,Wunderground v.1.15,2013-10-09 23:33:00,
2013-10-09 18:38:00,69.1,49.1,29.86,SE,141,5.0,14.0,49,0.00,,,0.00,Wunderground v.1.15,2013-10-09 23:38:00,
2013-10-09 18:43:00,68.7,49.3,29.86,SE,142,4.0,11.0,50,0.00,,,0.00,Wunderground v.1.15,2013-10-09 23:43:00,
2013-10-09 18:48:00,68.4,49.0,29.86,SE,138,8.0,13.0,50,0.00,,,0.00,Wunderground v.1.15,2013-10-09 23:48:00,
2013-10-09 18:53:00,67.9,49.1,29.86,SE,146,3.0,9.0,51,0.00,,,0.00,Wunderground v.1.15,2013-10-09 23:53:00,
2013-10-09 18:58:00,67.5,48.7,29.86,SSE,149,9.0,10.0,51,0.00,,,0.00,Wunderground v.1.15,2013-10-09 23:58:00,
2013-10-09 19:03:00,67.4,48.6,29.86,SE,145,4.0,10.0,51,0.00,,,0.00,Wunderground v.1.15,2013-10-10 00:03:00,
2013-10-09 19:08:00,67.1,48.4,29.86,SE,146,7.0,11.0,51,0.00,,,0.00,Wunderground v.1.15,2013-10-10 00:08:00,
2013-10-09 19:13:00,67.2,47.9,29.87,SSE,148,8.0,11.0,50,0.00,,,0.00,Wunderground v.1.15,2013-10-10 00:13:00,
2013-10-09 19:18:00,66.8,47.6,29.87,ESE,123,5.0,12.0,50,0.00,,,0.00,Wunderground v.1.15,2013-10-10 00:18:00,
2013-10-09 19:23:00,66.5,47.3,29.87,SSE,152,5.0,8.0,50,0.00,,,0.00,Wunderground v.1.15,2013-10-10 00:23:00,
2013-10-09 19:28:00,65.9,47.3,29.87,SSE,150,2.0,10.0,51,0.00,,,0.00,Wunderground v.1.15,2013-10-10 00:28:00,
2013-10-09 19:33:00,65.8,46.6,29.87,SSE,152,7.0,7.0,50,0.00,,,0.00,Wunderground v.1.15,2013-10-10 00:33:00,
2013-10-09 19:38:00,65.2,46.6,29.88,SSE,150,4.0,9.0,51,0.00,,,0.00,Wunderground v.1.15,2013-10-10 00:38:00,
2013-10-09 19:43:00,64.7,46.1,29.88,SSE,149,2.0,5.0,51,0.00,,,0.00,Wunderground v.1.15,2013-10-10 00:43:00,
2013-10-09 19:48:00,64.0,46.5,29.88,SSE,147,4.0,6.0,53,0.00,,,0.00,Wunderground v.1.15,2013-10-10 00:48:00,
2013-10-09 19:53:00,63.5,46.1,29.87,SE,142,3.0,6.0,53,0.00,,,0.00,Wunderground v.1.15,2013-10-10 00:53:00,
2013-10-09 19:58:00,63.1,46.2,29.88,SE,142,3.0,6.0,54,0.00,,,0.00,Wunderground v.1.15,2013-10-10 00:58:00,
2013-10-09 20:04:00,63.1,46.2,29.88,SE,132,4.0,9.0,54,0.00,,,0.00,Wunderground v.1.15,2013-10-10 01:04:00,
2013-10-09 20:09:00,62.8,45.9,29.88,SE,136,4.0,9.0,54,0.00,,,0.00,Wunderground v.1.15,2013-10-10 01:09:00,
2013-10-09 20:14:00,62.6,46.2,29.88,SE,138,3.0,6.0,55,0.00,,,0.00,Wunderground v.1.15,2013-10-10 01:14:00,
2013-10-09 20:19:00,62.6,46.2,29.88,SE,140,5.0,8.0,55,0.00,,,0.00,Wunderground v.1.15,2013-10-10 01:19:00,
2013-10-09 20:24:00,62.7,46.3,29.88,SE,140,5.0,11.0,55,0.00,,,0.00,Wunderground v.1.15,2013-10-10 01:24:00,
2013-10-09 20:29:00,62.9,46.5,29.88,SE,140,2.0,11.0,55,0.00,,,0.00,Wunderground v.1.15,2013-10-10 01:29:00,
2013-10-09 20:34:00,62.7,46.8,29.88,SE,141,4.0,9.0,56,0.00,,,0.00,Wunderground v.1.15,2013-10-10 01:34:00,
2013-10-09 20:39:00,62.5,46.6,29.88,SE,141,2.0,9.0,56,0.00,,,0.00,Wunderground v.1.15,2013-10-10 01:39:00,
2013-10-09 20:44:00,62.3,46.9,29.88,SSE,148,6.0,9.0,57,0.00,,,0.00,Wunderground v.1.15,2013-10-10 01:44:00,
2013-10-09 20:49:00,62.1,46.7,29.89,SE,138,2.0,14.0,57,0.00,,,0.00,Wunderground v.1.15,2013-10-10 01:49:00,
2013-10-09 20:54:00,61.8,46.9,29.89,SE,144,6.0,6.0,58,0.00,,,0.00,Wunderground v.1.15,2013-10-10 01:54:00,
2013-10-09 20:59:00,61.5,47.0,29.89,SE,144,6.0,8.0,59,0.00,,,0.00,Wunderground v.1.15,2013-10-10 01:59:00,
2013-10-09 21:04:00,61.2,47.2,29.90,SE,142,3.0,8.0,60,0.00,,,0.00,Wunderground v.1.15,2013-10-10 02:04:00,
2013-10-09 21:09:00,60.9,47.4,29.90,SE,143,5.0,8.0,61,0.00,,,0.00,Wunderground v.1.15,2013-10-10 02:09:00,
2013-10-09 21:14:00,60.9,47.4,29.90,SE,144,4.0,7.0,61,0.00,,,0.00,Wunderground v.1.15,2013-10-10 02:14:00,
2013-10-09 21:19:00,61.0,47.4,29.90,SE,146,4.0,8.0,61,0.00,,,0.00,Wunderground v.1.15,2013-10-10 02:19:00,
2013-10-09 21:24:00,60.8,47.3,29.90,SE,146,3.0,8.0,61,0.00,,,0.00,Wunderground v.1.15,2013-10-10 02:24:00,
2013-10-09 21:29:00,60.5,47.4,29.90,SE,146,4.0,8.0,62,0.00,,,0.00,Wunderground v.1.15,2013-10-10 02:29:00,
2013-10-09 21:34:00,60.2,47.6,29.90,SE,146,6.0,7.0,63,0.00,,,0.00,Wunderground v.1.15,2013-10-10 02:34:00,
2013-10-09 21:39:00,60.2,47.6,29.90,SE,146,2.0,7.0,63,0.00,,,0.00,Wunderground v.1.15,2013-10-10 02:39:00,
2013-10-09 21:44:00,60.1,47.5,29.90,SSE,148,4.0,8.0,63,0.00,,,0.00,Wunderground v.1.15,2013-10-10 02:44:00,
2013-10-09 21:49:00,59.7,47.5,29.91,SSE,148,3.0,8.0,64,0.00,,,0.00,Wunderground v.1.15,2013-10-10 02:49:00,
2013-10-09 21:54:00,59.7,47.5,29.91,SSE,157,6.0,9.0,64,0.00,,,0.00,Wunderground v.1.15,2013-10-10 02:54:00,
2013-10-09 21:59:00,59.7,47.5,29.91,SSE,156,4.0,9.0,64,0.00,,,0.00,Wunderground v.1.15,2013-10-10 02:59:00,
2013-10-09 22:04:00,59.9,47.3,29.91,SSE,152,7.0,11.0,63,0.00,,,0.00,Wunderground v.1.15,2013-10-10 03:04:00,
2013-10-09 22:09:00,59.7,47.1,29.91,SSE,163,9.0,11.0,63,0.00,,,0.00,Wunderground v.1.15,2013-10-10 03:09:00,
2013-10-09 22:14:00,59.8,47.2,29.91,SSE,157,3.0,10.0,63,0.00,,,0.00,Wunderground v.1.15,2013-10-10 03:14:00,
2013-10-09 22:19:00,59.9,47.3,29.91,SSE,159,6.0,10.0,63,0.00,,,0.00,Wunderground v.1.15,2013-10-10 03:19:00,
2013-10-09 22:24:00,59.8,47.2,29.91,SSE,157,7.0,8.0,63,0.00,,,0.00,Wunderground v.1.15,2013-10-10 03:24:00,
2013-10-09 22:29:00,59.7,47.1,29.92,SSE,156,5.0,9.0,63,0.00,,,0.00,Wunderground v.1.15,2013-10-10 03:29:00,
2013-10-09 22:34:00,59.2,47.0,29.92,SSE,157,3.0,7.0,64,0.00,,,0.00,Wunderground v.1.15,2013-10-10 03:34:00,
2013-10-09 22:39:00,58.9,47.2,29.92,SSE,156,5.0,7.0,65,0.00,,,0.00,Wunderground v.1.15,2013-10-10 03:39:00,
2013-10-09 22:44:00,58.7,47.4,29.92,SSE,157,2.0,7.0,66,0.00,,,0.00,Wunderground v.1.15,2013-10-10 03:44:00,
2013-10-09 22:49:00,58.6,47.3,29.92,SSE,156,5.0,7.0,66,0.00,,,0.00,Wunderground v.1.15,2013-10-10 03:49:00,
2013-10-09 22:54:00,58.7,47.4,29.92,SSE,157,5.0,9.0,66,0.00,,,0.00,Wunderground v.1.15,2013-10-10 03:54:00,
2013-10-09 22:59:00,58.7,47.4,29.92,SSE,151,4.0,9.0,66,0.00,,,0.00,Wunderground v.1.15,2013-10-10 03:59:00,
2013-10-09 23:01:00,58.9,47.6,29.92,SSE,152,5.0,6.0,66,0.00,,,0.00,Wunderground v.1.15,2013-10-10 04:01:00,
2013-10-09 23:06:00,58.7,47.4,29.92,SSE,154,5.0,11.0,66,0.00,,,0.00,Wunderground v.1.15,2013-10-10 04:06:00,
2013-10-09 23:11:00,58.4,47.1,29.92,SSE,153,7.0,7.0,66,0.00,,,0.00,Wunderground v.1.15,2013-10-10 04:11:00,
2013-10-09 23:16:00,58.2,46.9,29.93,SSE,154,6.0,8.0,66,0.00,,,0.00,Wunderground v.1.15,2013-10-10 04:16:00,
2013-10-09 23:22:00,58.2,46.9,29.93,SSE,155,3.0,7.0,66,0.00,,,0.00,Wunderground v.1.15,2013-10-10 04:22:00,
2013-10-09 23:27:00,58.0,47.1,29.93,SSE,156,4.0,9.0,67,0.00,,,0.00,Wunderground v.1.15,2013-10-10 04:27:00,
2013-10-09 23:32:00,57.9,47.0,29.93,SSE,157,6.0,8.0,67,0.00,,,0.00,Wunderground v.1.15,2013-10-10 04:32:00,
2013-10-09 23:37:00,57.7,46.8,29.93,SSE,157,6.0,8.0,67,0.00,,,0.00,Wunderground v.1.15,2013-10-10 04:37:00,
2013-10-09 23:42:00,57.8,46.9,29.93,SSE,156,3.0,7.0,67,0.00,,,0.00,Wunderground v.1.15,2013-10-10 04:42:00,
2013-10-09 23:47:00,57.5,46.6,29.93,SSE,156,7.0,8.0,67,0.00,,,0.00,Wunderground v.1.15,2013-10-10 04:47:00,
2013-10-09 23:52:00,57.2,46.7,29.93,SSE,155,5.0,9.0,68,0.00,,,0.00,Wunderground v.1.15,2013-10-10 04:52:00,
2013-10-09 23:57:00,57.0,46.5,29.93,SSE,155,3.0,9.0,68,0.00,,,0.00,Wunderground v.1.15,2013-10-10 04:57:00,